loading
DOY 175 | 2024-06-23T18:53:16Z

DELTA 1 R/B, 341

Orbit data source: Space-Track

DELTA 1 R/B, 341 is space debris originally from a launch on Tue, 10 Jul 1962 UTC launched from the Air Force Eastern Test Range (AFETR). Debris objects in space refer to the collection of defunct objects orbiting the Earth. Examples of debris include non-operational satellites, rocket bodies, and fragments generated from explosions, collisions, or faulty payload assembly.

Loading next visibility...
Loading greatness...
DELTA 1 R/B details
NORAD ID341
COSPAR ID
1962-029B
Orbit
Active
Last TLE update1 day ago
Origin
Flag of USGSFC (US)
ManufacturerABL
BusAltair
MotorUnknown
Mass24 kg wet, 24 kg dry
Launch date (UTC)
1962-07-10 (62 years ago)
Launch vehicleUnknown
Launch site
Air Force Eastern Test Range (AFETR)
Object type
Payload
Rocket body
Debris
Radar Cross Section0.46 m², Medium (>0.1 m² and < 1m²)
Predictive object data (real-time)
Latitude44.07187°
Longitude-172.17424°
Altitude5,619.039 km
Speed5.024 km/s
Apparent Right ascension15h 03m 11s
Apparent Declination20° 29' 10"
Sunlit
Object is in daylight
Predictive observer data (real-time)
Local Sidereal Time06:02:31
Azimuth43.555° NE
Elevation-16.554°
Doppler factor1
Orbital elements
Apogee5,619.806 km
Perigee948.006 km
Semi-major axis9,662.043 km
Eccentricity0.2417605
Inclination44.8004°
RAAN128.6321°
Arg. of periapsis255.1215°
True anomaly259.18955°
Mean anomaly287.0842°
Mean motion2.28528 °/min
BSTAR-0.00038028
Period157.53 mins
Definitive object data (Epoch: 2024-06-22T06:53:39.914Z)
Latitude17.81648°
Longitude-84.5395°
Altitude3,149.465 km
Speed6.515 km/s
True Right ascension19h 19m 19s
True Declination17° 44' 30"
Sunlit
Object was in daylight at TLE epoch
TLE from 1 day ago
0 DELTA 1 R/B
1 00341U 62029B   24174.28726753 -.00000069  00000-0 -38028-3 0  9996
2 00341  44.8004 128.6321 2417605 255.1215 287.0842  9.14293408 68813
Epoch: 2024-06-22T06:53Z
No data available
Other satellites on launch #29 in the year 1962 (1962-07-10 UTC)

DELTA 1 R/B Visibility forecast

Observer location: 39.9160978°, -105.1181434, 0m alt.

DELTA 1 R/B is not visible in the next 10 days
Span
Click to sort rows by Start time (UTC) header in descending order
Start Az.
Max El. time (UTC)
Max El. Az.
Max El.
End time (UTC)
End Az.